Time,TemperatureF,DewpointF,PressureIn,WindDirection,WindDirectionDegrees,WindSpeedMPH,WindSpeedGustMPH,Humidity,HourlyPrecipIn,Conditions,Clouds,dailyrainin,SoftwareType,DateUTC
2013-09-29 00:13:00,55.9,54.0,29.61,SSW,202,0.0,0.0,94,0.00,,,0.00,weatherlink.com 1.10,2013-09-29 05:13:00,
2013-09-29 00:28:00,55.6,54.0,29.61,SSW,202,0.0,0.0,94,0.00,,,0.00,weatherlink.com 1.10,2013-09-29 05:28:00,
2013-09-29 00:43:00,55.3,54.0,29.61,SSW,202,0.0,0.0,94,0.00,,,0.00,weatherlink.com 1.10,2013-09-29 05:43:00,
2013-09-29 00:58:00,55.0,53.0,29.61,SSW,202,0.0,0.0,94,0.00,,,0.00,weatherlink.com 1.10,2013-09-29 05:58:00,
2013-09-29 01:13:00,54.8,53.0,29.61,SSW,202,0.0,0.0,94,0.00,,,0.00,weatherlink.com 1.10,2013-09-29 06:13:00,
2013-09-29 01:28:00,54.5,53.0,29.60,SSW,202,0.0,0.0,94,0.00,,,0.00,weatherlink.com 1.10,2013-09-29 06:28:00,
2013-09-29 01:43:00,54.2,53.0,29.60,SSW,202,0.0,0.0,94,0.00,,,0.00,weatherlink.com 1.10,2013-09-29 06:43:00,
2013-09-29 01:58:00,53.9,52.0,29.60,SSW,202,0.0,0.0,94,0.00,,,0.00,weatherlink.com 1.10,2013-09-29 06:58:00,
2013-09-29 02:13:00,53.6,52.0,29.59,SSW,202,0.0,0.0,94,0.00,,,0.00,weatherlink.com 1.10,2013-09-29 07:13:00,
2013-09-29 02:28:00,53.3,52.0,29.59,SSW,202,0.0,0.0,94,0.00,,,0.00,weatherlink.com 1.10,2013-09-29 07:28:00,
2013-09-29 02:44:00,53.1,52.0,29.59,SSW,202,0.0,0.0,94,0.00,,,0.00,weatherlink.com 1.10,2013-09-29 07:44:00,
2013-09-29 02:59:00,52.8,51.0,29.59,SSW,202,0.0,0.0,94,0.00,,,0.00,weatherlink.com 1.10,2013-09-29 07:59:00,
2013-09-29 03:14:00,52.6,51.0,29.59,SSW,202,0.0,0.0,94,0.00,,,0.00,weatherlink.com 1.10,2013-09-29 08:14:00,
2013-09-29 03:29:00,52.4,51.0,29.58,SSW,202,0.0,0.0,94,0.00,,,0.00,weatherlink.com 1.10,2013-09-29 08:29:00,
2013-09-29 03:44:00,52.2,51.0,29.58,SSW,202,0.0,0.0,94,0.00,,,0.00,weatherlink.com 1.10,2013-09-29 08:44:00,
2013-09-29 03:59:00,52.1,51.0,29.58,SSW,202,0.0,0.0,95,0.00,,,0.00,weatherlink.com 1.10,2013-09-29 08:59:00,
2013-09-29 04:14:00,52.4,51.0,29.57,SSW,202,0.0,0.0,95,0.00,,,0.00,weatherlink.com 1.10,2013-09-29 09:14:00,
2013-09-29 04:29:00,52.6,51.0,29.57,SSW,202,0.0,0.0,95,0.00,,,0.00,weatherlink.com 1.10,2013-09-29 09:29:00,
2013-09-29 04:44:00,53.5,52.0,29.57,South,187,2.0,2.0,96,0.00,,,0.00,weatherlink.com 1.10,2013-09-29 09:44:00,
2013-09-29 04:59:00,54.6,54.0,29.57,SSW,204,0.0,1.0,96,0.00,,,0.00,weatherlink.com 1.10,2013-09-29 09:59:00,
2013-09-29 05:14:00,54.8,54.0,29.57,South,178,0.0,2.0,96,0.00,,,0.00,weatherlink.com 1.10,2013-09-29 10:14:00,
2013-09-29 05:29:00,54.9,54.0,29.58,SSE,153,0.0,1.0,96,0.00,,,0.00,weatherlink.com 1.10,2013-09-29 10:29:00,
2013-09-29 05:44:00,54.9,54.0,29.59,SSE,153,0.0,0.0,95,0.00,,,0.00,weatherlink.com 1.10,2013-09-29 10:44:00,
2013-09-29 05:59:00,55.0,54.0,29.59,SSE,153,0.0,0.0,95,0.00,,,0.00,weatherlink.com 1.10,2013-09-29 10:59:00,
2013-09-29 06:14:00,54.7,53.0,29.59,SSE,153,0.0,0.0,95,0.00,,,0.00,weatherlink.com 1.10,2013-09-29 11:14:00,
2013-09-29 06:29:00,54.6,53.0,29.59,SSE,153,0.0,0.0,95,0.00,,,0.00,weatherlink.com 1.10,2013-09-29 11:29:00,
2013-09-29 06:44:00,54.7,53.0,29.59,SSE,153,0.0,0.0,95,0.00,,,0.00,weatherlink.com 1.10,2013-09-29 11:44:00,
2013-09-29 06:59:00,54.8,53.0,29.60,West,259,0.0,0.0,95,0.00,,,0.00,weatherlink.com 1.10,2013-09-29 11:59:00,
2013-09-29 07:14:00,54.9,54.0,29.59,West,259,0.0,0.0,95,0.00,,,0.00,weatherlink.com 1.10,2013-09-29 12:14:00,
2013-09-29 07:29:00,55.0,54.0,29.60,West,259,0.0,0.0,95,0.00,,,0.00,weatherlink.com 1.10,2013-09-29 12:29:00,
2013-09-29 07:44:00,55.2,54.0,29.60,West,259,0.0,0.0,95,0.00,,,0.00,weatherlink.com 1.10,2013-09-29 12:44:00,
2013-09-29 07:59:00,55.7,54.0,29.60,West,259,0.0,0.0,95,0.00,,,0.00,weatherlink.com 1.10,2013-09-29 12:59:00,
2013-09-29 08:14:00,56.3,55.0,29.60,SSW,205,0.0,3.0,96,0.00,,,0.00,weatherlink.com 1.10,2013-09-29 13:14:00,
2013-09-29 08:29:00,57.1,56.0,29.60,WNW,292,0.0,1.0,95,0.00,,,0.00,weatherlink.com 1.10,2013-09-29 13:29:00,
2013-09-29 08:44:00,58.6,57.0,29.60,South,190,1.0,2.0,93,0.00,,,0.00,weatherlink.com 1.10,2013-09-29 13:44:00,
2013-09-29 08:59:00,59.9,57.0,29.61,SSW,211,0.0,3.0,90,0.00,,,0.00,weatherlink.com 1.10,2013-09-29 13:59:00,
2013-09-29 09:14:00,60.8,57.0,29.61,SSW,199,0.0,4.0,88,0.00,,,0.00,weatherlink.com 1.10,2013-09-29 14:14:00,
2013-09-29 09:29:00,61.7,57.0,29.61,South,188,0.0,4.0,85,0.00,,,0.00,weatherlink.com 1.10,2013-09-29 14:29:00,
2013-09-29 09:44:00,62.5,58.0,29.60,SSW,205,0.0,3.0,84,0.00,,,0.00,weatherlink.com 1.10,2013-09-29 14:44:00,
2013-09-29 09:59:00,63.1,58.0,29.60,South,186,0.0,5.0,84,0.00,,,0.00,weatherlink.com 1.10,2013-09-29 14:59:00,
2013-09-29 10:14:00,63.8,59.0,29.60,SW,229,0.0,2.0,84,0.00,,,0.00,weatherlink.com 1.10,2013-09-29 15:14:00,
2013-09-29 10:29:00,64.7,60.0,29.60,SSW,197,0.0,1.0,84,0.00,,,0.00,weatherlink.com 1.10,2013-09-29 15:29:00,
2013-09-29 10:44:00,66.0,61.0,29.59,NE,36,1.0,3.0,84,0.00,,,0.00,weatherlink.com 1.10,2013-09-29 15:44:00,
2013-09-29 10:59:00,66.9,61.0,29.59,SSW,202,0.0,3.0,80,0.00,,,0.00,weatherlink.com 1.10,2013-09-29 15:59:00,
2013-09-29 11:14:00,68.5,61.0,29.58,SW,219,0.0,7.0,77,0.00,,,0.00,weatherlink.com 1.10,2013-09-29 16:14:00,
2013-09-29 11:30:00,69.8,60.0,29.57,ENE,72,0.0,4.0,71,0.00,,,0.00,weatherlink.com 1.10,2013-09-29 16:30:00,
2013-09-29 11:45:00,70.7,61.0,29.57,South,182,0.0,4.0,72,0.00,,,0.00,weatherlink.com 1.10,2013-09-29 16:45:00,
2013-09-29 12:00:00,70.4,62.0,29.57,South,178,0.0,0.0,75,0.00,,,0.00,weatherlink.com 1.10,2013-09-29 17:00:00,
2013-09-29 12:15:00,71.5,62.0,29.56,NW,319,0.0,2.0,73,0.00,,,0.00,weatherlink.com 1.10,2013-09-29 17:15:00,
2013-09-29 12:30:00,70.9,61.0,29.55,SSW,194,0.0,1.0,71,0.00,,,0.00,weatherlink.com 1.10,2013-09-29 17:30:00,
2013-09-29 12:45:00,71.6,60.0,29.55,NNW,343,0.0,5.0,68,0.00,,,0.00,weatherlink.com 1.10,2013-09-29 17:45:00,
2013-09-29 13:00:00,72.0,60.0,29.54,NNE,29,0.0,2.0,67,0.00,,,0.00,weatherlink.com 1.10,2013-09-29 18:00:00,
2013-09-29 13:15:00,71.6,63.0,29.54,North,360,0.0,0.0,73,0.00,,,0.00,weatherlink.com 1.10,2013-09-29 18:15:00,
2013-09-29 13:30:00,71.6,60.0,29.53,NNW,328,2.0,2.0,68,0.00,,,0.00,weatherlink.com 1.10,2013-09-29 18:30:00,
2013-09-29 13:45:00,72.4,59.0,29.52,NW,316,0.0,2.0,63,0.00,,,0.00,weatherlink.com 1.10,2013-09-29 18:45:00,
2013-09-29 14:00:00,72.9,64.0,29.51,NW,310,0.0,1.0,73,0.00,,,0.00,weatherlink.com 1.10,2013-09-29 19:00:00,
2013-09-29 14:15:00,72.6,60.0,29.50,NNE,15,0.0,2.0,64,0.00,,,0.00,weatherlink.com 1.10,2013-09-29 19:15:00,
2013-09-29 14:30:00,72.9,63.0,29.50,WSW,241,0.0,1.0,72,0.00,,,0.00,weatherlink.com 1.10,2013-09-29 19:30:00,
2013-09-29 14:45:00,72.5,60.0,29.50,WNW,289,0.0,2.0,66,0.00,,,0.00,weatherlink.com 1.10,2013-09-29 19:45:00,
2013-09-29 15:00:00,71.9,64.0,29.49,South,188,0.0,2.0,75,0.00,,,0.00,weatherlink.com 1.10,2013-09-29 20:00:00,
2013-09-29 15:15:00,71.2,64.0,29.49,SSW,205,0.0,1.0,77,0.00,,,0.00,weatherlink.com 1.10,2013-09-29 20:15:00,
2013-09-29 15:30:00,71.2,63.0,29.49,NW,317,0.0,2.0,75,0.00,,,0.00,weatherlink.com 1.10,2013-09-29 20:30:00,
2013-09-29 15:45:00,71.3,62.0,29.49,WNW,295,0.0,3.0,72,0.00,,,0.00,weatherlink.com 1.10,2013-09-29 20:45:00,
2013-09-29 16:00:00,71.3,63.0,29.49,SW,224,0.0,2.0,75,0.00,,,0.00,weatherlink.com 1.10,2013-09-29 21:00:00,
2013-09-29 16:15:00,71.0,63.0,29.49,SW,227,0.0,0.0,77,0.00,,,0.00,weatherlink.com 1.10,2013-09-29 21:15:00,
2013-09-29 16:30:00,70.3,64.0,29.48,SW,227,0.0,0.0,79,0.00,,,0.00,weatherlink.com 1.10,2013-09-29 21:30:00,
2013-09-29 16:45:00,69.8,63.0,29.49,SW,230,0.0,1.0,80,0.00,,,0.00,weatherlink.com 1.10,2013-09-29 21:45:00,
2013-09-29 17:00:00,69.4,63.0,29.49,SW,230,0.0,0.0,80,0.00,,,0.00,weatherlink.com 1.10,2013-09-29 22:00:00,
2013-09-29 17:15:00,68.6,63.0,29.49,SW,232,0.0,0.0,81,0.00,,,0.00,weatherlink.com 1.10,2013-09-29 22:15:00,
2013-09-29 17:30:00,68.1,63.0,29.50,SW,232,0.0,0.0,83,0.00,,,0.00,weatherlink.com 1.10,2013-09-29 22:30:00,
2013-09-29 17:45:00,67.5,62.0,29.50,SW,232,0.0,0.0,83,0.00,,,0.00,weatherlink.com 1.10,2013-09-29 22:45:00,
2013-09-29 18:00:00,66.9,62.0,29.50,SW,232,0.0,0.0,83,0.00,,,0.00,weatherlink.com 1.10,2013-09-29 23:00:00,
2013-09-29 18:15:00,66.4,61.0,29.50,SW,232,0.0,0.0,83,0.00,,,0.00,weatherlink.com 1.10,2013-09-29 23:15:00,
2013-09-29 18:30:00,65.8,61.0,29.50,SW,232,0.0,0.0,85,0.00,,,0.00,weatherlink.com 1.10,2013-09-29 23:30:00,
2013-09-29 18:45:00,64.9,61.0,29.50,SW,232,0.0,0.0,86,0.00,,,0.00,weatherlink.com 1.10,2013-09-29 23:45:00,
2013-09-29 19:00:00,64.0,60.0,29.50,SW,232,0.0,0.0,87,0.00,,,0.00,weatherlink.com 1.10,2013-09-30 00:00:00,
2013-09-29 19:15:00,63.4,60.0,29.50,SW,232,0.0,0.0,87,0.00,,,0.00,weatherlink.com 1.10,2013-09-30 00:15:00,
2013-09-29 19:30:00,62.7,59.0,29.50,SW,232,0.0,0.0,88,0.00,,,0.00,weatherlink.com 1.10,2013-09-30 00:30:00,
2013-09-29 19:45:00,62.1,59.0,29.51,SW,232,0.0,0.0,89,0.00,,,0.00,weatherlink.com 1.10,2013-09-30 00:45:00,
2013-09-29 20:00:00,61.6,59.0,29.51,SW,232,0.0,0.0,90,0.00,,,0.00,weatherlink.com 1.10,2013-09-30 01:00:00,
2013-09-29 20:15:00,61.2,58.0,29.51,SW,232,0.0,0.0,90,0.00,,,0.00,weatherlink.com 1.10,2013-09-30 01:15:00,
2013-09-29 20:30:00,60.9,58.0,29.51,SW,232,0.0,0.0,91,0.00,,,0.00,weatherlink.com 1.10,2013-09-30 01:30:00,
2013-09-29 20:45:00,60.8,58.0,29.51,SW,232,0.0,0.0,91,0.00,,,0.00,weatherlink.com 1.10,2013-09-30 01:45:00,
2013-09-29 21:00:00,60.7,58.0,29.50,SW,232,0.0,0.0,92,0.00,,,0.00,weatherlink.com 1.10,2013-09-30 02:00:00,
2013-09-29 21:15:00,60.9,59.0,29.50,SW,232,0.0,0.0,92,0.00,,,0.00,weatherlink.com 1.10,2013-09-30 02:15:00,
2013-09-29 21:30:00,60.8,59.0,29.50,SW,232,0.0,0.0,92,0.00,,,0.00,weatherlink.com 1.10,2013-09-30 02:30:00,
2013-09-29 21:45:00,60.7,58.0,29.50,SW,232,0.0,0.0,92,0.00,,,0.00,weatherlink.com 1.10,2013-09-30 02:45:00,
2013-09-29 22:00:00,60.6,58.0,29.50,SW,232,0.0,0.0,92,0.00,,,0.00,weatherlink.com 1.10,2013-09-30 03:00:00,
2013-09-29 22:15:00,60.1,58.0,29.50,SW,232,0.0,0.0,91,0.00,,,0.00,weatherlink.com 1.10,2013-09-30 03:15:00,
2013-09-29 22:30:00,59.7,57.0,29.50,SW,232,0.0,0.0,91,0.00,,,0.00,weatherlink.com 1.10,2013-09-30 03:30:00,
2013-09-29 22:45:00,59.3,57.0,29.49,SW,232,0.0,0.0,92,0.00,,,0.00,weatherlink.com 1.10,2013-09-30 03:45:00,
2013-09-29 23:00:00,58.9,57.0,29.49,SW,232,0.0,0.0,92,0.00,,,0.00,weatherlink.com 1.10,2013-09-30 04:00:00,
2013-09-29 23:15:00,58.4,56.0,29.49,SW,232,0.0,0.0,92,0.00,,,0.00,weatherlink.com 1.10,2013-09-30 04:15:00,
2013-09-29 23:30:00,58.0,56.0,29.49,SW,232,0.0,0.0,93,0.00,,,0.00,weatherlink.com 1.10,2013-09-30 04:30:00,
2013-09-29 23:45:00,57.8,56.0,29.49,SW,232,0.0,0.0,93,0.00,,,0.00,weatherlink.com 1.10,2013-09-30 04:45:00,